Flag for Germany Weather past 2 weeks in Frankenthal (Pfalz), Rhineland-Palatinate, Germany

Now
81 °F

Passing clouds.


Feels Like: 82 °F
Forecast: 63 / 73 °F
Wind: 3 mph from North

Location: Baden Wurttemberg - Neuostheim

Current Time: Jul 28, 2014 at 1:48:47 PM

Latest Report: Jul 28, 2014 at 1:20 PM


Visibility: N/A

Pressure: 29.86 "Hg

Humidity: 54%

Dew point: 63 °F

Location of Frankenthal (Pfalz)Location

Historic Weather in Frankenthal (Pfalz) — Graph

°F

Frankenthal (Pfalz) temperature yesterday

Maximum temperature yesterday: 84 °F (at 3:50 PM)
Minimum temperature yesterday: 66 °F (at 7:50 AM)
Average temperature yesterday: 77 °F

Past Weeks' High & Low Weather Summary

 TemperatureHumidityPressure
High93 °F (Jul 18, 4:50 PM)100% (Jul 21, 5:50 AM)30.18 "Hg (Jul 21, 5:50 AM)
Low59 °F (Jul 15, 5:20 AM)20% (Jul 18, 5:50 PM)29.80 "Hg (Jul 13, 4:20 PM)
Average75 °F59%29.97 "Hg
* Reported Jul 13 12:20 PM — Jul 28 12:50 PM, Frankenthal (Pfalz), Weather by CustomWeather, © 2014

Note: Actual official high and low records may vary slightly from our data, if they occured in-between our weather recording intervals... More about our weather records

Advertising

Frankenthal (Pfalz) weather history for previous 24 hours

 ConditionsComfort  
Time TempWeatherWind HumidityBarometerVisibility
12:50 PM
Jul 28
79 °FPassing clouds.3 mph58%29.86 "HgN/A
12:20 PM79 °FPassing clouds.5 mph58%29.86 "HgN/A
11:50 AM77 °FPassing clouds.6 mph61%29.86 "HgN/A
11:20 AM77 °FSunny.5 mph65%29.86 "Hg10 mi
10:50 AM73 °FSunny.3 mph74%29.89 "Hg10 mi
10:20 AM70 °FSunny.3 mph78%29.89 "Hg10 mi
9:50 AM70 °FSunny.2 mph83%29.89 "Hg10 mi
9:20 AM68 °FSunny.1 mph83%29.92 "Hg10 mi
8:50 AM66 °FSunny.2 mph88%29.92 "Hg10 mi
8:20 AM66 °FSunny.2 mph88%29.92 "Hg10 mi
7:50 AM66 °FSunny.2 mph88%29.89 "Hg10 mi
7:20 AM64 °FSunny.1 mph94%29.92 "Hg10 mi
6:50 AM63 °FClear.1 mph100%29.92 "Hg10 mi
6:20 AM63 °FClear.No wind94%29.92 "Hg10 mi
5:50 AM63 °FClear.1 mph94%29.92 "Hg10 mi
7:20 PM
Jul 27
68 °FThunderstorms. Scattered clouds.9 mph88%29.95 "Hg3 mi
6:50 PM81 °FScattered showers. Partly sunny.7 mph48%29.95 "HgN/A
6:20 PM82 °FScattered showers. Partly sunny.6 mph42%29.92 "HgN/A
5:50 PM82 °FPassing clouds.5 mph42%29.92 "HgN/A
5:20 PM84 °FScattered clouds.7 mph40%29.92 "HgN/A
4:50 PM84 °FSunny.2 mph37%29.95 "Hg10 mi
4:20 PM84 °FPassing clouds.6 mph43%29.95 "HgN/A
3:50 PM84 °FSunny.2 mph40%29.95 "Hg10 mi
3:20 PM82 °FSunny.6 mph45%29.98 "Hg10 mi
2:50 PM81 °FPassing clouds.6 mph45%29.98 "HgN/A
2:20 PM81 °FScattered clouds.7 mph48%29.98 "HgN/A
1:50 PM81 °FPassing clouds.6 mph48%29.98 "HgN/A
1:20 PM79 °FPassing clouds.7 mph51%29.98 "HgN/A
Weather by CustomWeather, © 2014

See weather overviewHow to use our weather pages